574  
SXUS52 KTAE 221816  
OSOTAE  
OSOTAE  
NORTH FLORIDA/SOUTH ALABAMA/SOUTHWEST GEORGIA WEATHER ROUNDUP  
NATIONAL WEATHER SERVICE TALLAHASSEE FLORIDA  
200 PM EDT THU APR 22 2021  
 
NOTE: "FAIR" INDICATES FEW OR NO CLOUDS BELOW 12,000 FEET WITH NO  
SIGNIFICANT WEATHER AND/OR OBSTRUCTIONS TO VISIBILITY.  
 
!FLZ017-115-028-034-025-221900   
..NORTH FLORIDA
 
 
 
CITY SKY/WX TMP DP RH WIND PRES REMARKS  
TALL INTL ARPT MOSUNNY 64 29 26 E5 30.19F  
FSU LOVE BLDG N/A 64 30 27 W3 N/A  
APALACHICOLA SUNNY 65 40 39 E10 30.18F  
PERRY NOT AVBL  
CROSS CITY SUNNY 68 37 32 N13 30.16F  
JACKSONVILLE MOSUNNY 62 42 47 E8 30.18S  

 
 
!FLZ112-006-005-002-011-221900   
..FLORIDA PANHANDLE
 
 
 
CITY SKY/WX TMP DP RH WIND PRES REMARKS  
MARIANNA SUNNY 63 30 28 NE8 30.20F  
BONIFAY NOT AVBL  
PANAMA CITY NW FAIR 63 30 28 NE7 30.18F  
TYNDALL AFB NOT AVBL  
TYND DRONE APT NOT AVBL  
DE FUNIAK SPR FAIR 62 26 25 NE5 30.21F  
EGLIN AFB NOT AVBL  
DESTIN SUNNY 65 30 27 NE7 30.20F  
HURLBURT SUNNY 68 27 21 E3 30.19  
CRESTVIEW SUNNY 66 28 24 CALM 30.22F  
PENSACOLA SUNNY 66 30 26 N7 30.21F  

 
 
!ALZ063-066-221900   
..SOUTH ALABAMA
 
 
 
CITY SKY/WX TMP DP RH WIND PRES REMARKS  
DOTHAN SUNNY 64 25 22 N9 30.24F  
OZARK CAIRNS NOT AVBL  
FT RUCKER HELI SUNNY 63 23 22 NE9 30.22F  
RUCKER HELI 3 FAIR 63 25 23 E3 30.21F  
RUCKER HELI 2 FAIR 61 23 23 NE5 30.19  
FLORALA APT SUNNY 64 28 25 E10 30.23F  
ANDALUSIA SUNNY 67 25 20 E3G16 30.21  
TROY SUNNY 65 24 21 NE7 30.23F  
EUFALA FAIR 64 23 21 CALM 30.22F  
MOBILE NOT AVBL  

 
 
!GAZ120>161-221900   
..SOUTHWEST AND SOUTH CENTRAL GEORGIA
 
 
 
CITY SKY/WX TMP DP RH WIND PRES REMARKS  
THOMASVILLE FAIR 61 30 31 NE6 30.22F  
BAINBRIDGE SUNNY 62 30 29 E5 30.21F  
MOODY AFB SUNNY 61 25 25 NE9 30.19  
VALDOSTA SUNNY 64 29 26 VRB6 30.19F  
MOULTRIE SUNNY 61 28 29 NE6 30.21F  
BLAKELY SUNNY 61 28 29 E5 30.22F  
ALBANY SUNNY 65 26 23 NE7 30.23F  
TIFTON FAIR 60 24 24 CALM 30.20  
FITZGERALD CLOUDY 60 24 25 W3 30.21F  
CORDELE FAIR 59 19 21 N5 30.23F  
AMERICUS FAIR 61 21 21 S5 30.23F  
HOMERVILLE FAIR 63 28 27 N6 30.20F  

 
 
!GMZ750-755-770-775-221900   
..COASTAL AND BUOY OBS
 
 
 
STATION/POSITION TIME TEMP WIND PRES VSBY WAVE  
AIR SEA DIR/SP/G HT/PER  
(UTC) (F) (DEG/KT/KT) (MB) (MI) (FT/S)  
KEATON BEACH NOT AVBL  
CEDAR KEY NOT AVBL  
C TOWER NOT AVBL  
APALACHICOLA BUO NOT AVBL  
PANAMA CITY BUOY NOT AVBL  
MOBILE BUOY NOT AVBL  
ORANGE BCH AL BU NOT AVBL  

 
 
 
CLICK HERE TO GO TO PREVIOUS BULLETINS.

The Nexlab FL Page
The Nexlab GA Page
The Nexlab AL Page Main Text Page